[[{"header":{"parameterUnit":"m.s-1","parameterCategory":1,"la1":30.2991,"la2":30.254,"lo1":-89.0895,"lo2":-89.0444,"dy":0.0017,"dx":0.0017,"nx":28,"ny":28,"refTime":"2024-04-23T03:00:00:Z","depth":0,"parameterNumber":2,"parameterNumberName":"U-component_of_WINDS"},"data":[0,0,0,0,0,0,0,0,0,0,0,0,0,0,0,0,0,0,0,0,0,0,0,0,0,0,0,0,0,0,0,0,0,0,0,0,0,0,0,0,0,0,0,0,0,0,0,0,0,0,0,0,0,0,0,0,0,0,-3.4371,-3.4372,0,-3.4443,-3.4444,-3.4444,-3.4355,-3.4351,-3.4348,-3.4345,-3.4419,-3.4424,-3.4429,0,0,0,0,0,0,0,0,0,0,0,0,0,-3.4156,-3.4161,-3.4371,-3.4372,-3.4373,-3.4443,-3.4444,-3.4445,-3.4355,-3.4351,-3.4347,-3.4344,-3.4417,-3.4423,-3.4429,0,0,0,0,0,0,0,0,0,0,0,0,0,-3.4241,-3.4162,-3.4371,-3.4337,-3.4334,-3.4443,-3.4444,-3.4445,-3.4356,-3.4351,-3.4346,-3.4342,-3.4415,-3.4423,-3.443,-3.4575,0,0,-3.4453,-3.4456,0,0,0,0,0,0,0,0,-3.4236,-3.4249,-3.4341,-3.4339,-3.4337,-3.4385,-3.4395,-3.4489,-3.4357,-3.4348,-3.4345,-3.4339,-3.4412,-3.4419,-3.4443,-3.4579,-3.4582,-3.4454,-3.4458,-3.4462,-3.4464,0,0,0,0,0,0,0,-3.4231,-3.4246,-3.4399,-3.4342,-3.434,-3.4318,-3.4324,-3.4412,-3.4407,-3.4348,-3.4342,-3.4352,-3.441,-3.4436,-3.4444,-3.4583,-3.4454,-3.446,-3.4465,-3.4468,-3.4839,-3.4844,0,0,0,0,0,0,-3.4229,-3.4241,-3.4397,-3.4402,-3.4274,-3.4326,-3.4333,-3.4374,-3.4405,-3.4405,-3.4356,-3.4347,-3.4426,-3.4436,-3.4447,-3.4617,-3.4462,-3.4469,-3.4473,-3.4834,-3.484,-3.4846,0,0,0,0,0,0,-3.4225,-3.4244,-3.4394,-3.432,-3.4337,-3.4334,-3.4382,-3.4378,-3.4405,-3.4411,-3.4409,-3.4384,-3.4422,-3.4436,-3.4543,-3.4618,-3.4472,-3.4479,-3.4828,-3.4836,-3.4843,-3.496,0,0,0,0,0,0,-3.4219,-3.4243,-3.4298,-3.4322,-3.4342,-3.449,-3.4387,-3.4383,-3.4418,-3.4408,-3.4437,-3.4437,-3.442,-3.4533,-3.4551,-3.4626,-3.4485,-3.4821,-3.4831,-3.4841,-3.4949,-3.4971,-3.4989,0,0,0,0,0,-3.4212,-3.4329,-3.4301,-3.4321,-3.4411,-3.4495,-3.4506,-3.4483,-3.4425,-3.448,-3.4484,-3.4437,-3.4608,-3.4545,-3.4564,-3.4643,-3.4816,-3.4828,-3.484,-3.494,-3.4967,-3.4989,0,0,0,0,0,0,-3.4314,-3.4331,-3.4301,-3.4429,-3.4461,-3.448,-3.4549,-3.4512,-3.4561,-3.455,-3.4519,-3.4526,-3.464,-3.4653,-3.4582,-3.4784,-3.4702,-3.4719,-3.4772,-3.4797,-3.4816,-3.481,-3.4491,0,0,0,0,0,-3.4352,-3.4419,-3.443,-3.4542,-3.456,-3.4552,-3.4588,-3.4567,-3.4599,-3.4612,-3.4623,-3.4656,-3.4717,-3.4758,-3.4814,-3.4951,-3.4955,-3.5015,-3.5035,-3.5051,-3.5065,-3.5137,-3.5163,-3.4885,-3.4885,-3.4885,0,0,-3.443,-3.4448,-3.4492,-3.4563,-3.4585,-3.4655,-3.4564,-3.4642,-3.4692,-3.4624,-3.4725,-3.4735,-3.477,-3.4892,-3.4946,-3.4905,-3.5143,-3.5067,-3.508,-3.5085,-3.5152,-3.5178,-3.5201,-3.4894,-3.4892,-3.4891,0,0,-3.4608,-3.4629,-3.4723,-3.4747,-3.4782,-3.4776,-3.4799,-3.4823,-3.4826,-3.4928,-3.4877,-3.4937,-3.5043,-3.5069,-3.5097,-3.5284,-3.5241,-3.5303,-3.5407,-3.5477,-3.5499,-3.5518,-3.5582,-3.5606,-3.5317,-3.5318,-3.5318,0,-3.47,-3.4803,-3.4776,-3.4857,-3.489,-3.4831,-3.4925,-3.495,-3.5002,-3.5026,-3.4979,-3.511,-3.5129,-3.5256,-3.5301,-3.5326,-3.535,-3.5299,-3.5498,-3.5517,-3.5534,-3.5595,-3.562,-3.5325,-3.5324,-3.5323,-3.5323,0,-3.4914,-3.4986,-3.5059,-3.5109,-3.515,-3.5238,-3.5224,-3.5268,-3.5244,-3.5243,-3.5346,-3.5367,-3.5426,-3.5455,-3.5433,-3.5578,-3.5551,-3.5503,-3.5419,-3.5568,-3.5625,-3.5648,-3.5335,-3.5332,-3.533,-3.5329,0,0,-3.5158,-3.5192,-3.5219,-3.524,-3.5274,-3.5329,-3.5414,-3.5471,-3.5509,-3.5547,-3.5616,-3.5707,-3.5661,-3.5692,-3.5672,-3.5734,-3.5878,-3.5677,-3.5677,-3.5712,-3.6038,-3.6073,-3.6101,-3.5851,-3.5856,-3.5859,-3.6034,0,-3.5333,-3.548,-3.5458,-3.5599,-3.5664,-3.5609,-3.5682,-3.5711,-3.5712,-3.5767,-3.5769,-3.5832,-3.5768,-3.5786,-3.5845,-3.5848,-3.5943,-3.5836,-3.5914,-3.5917,-3.5905,-3.6131,-3.6168,-3.6332,-3.6056,-3.606,-3.6063,0,-3.5558,-3.5603,-3.575,-3.5772,-3.5799,-3.5866,-3.5915,-3.597,-3.6,-3.5997,-3.6031,-3.6,-3.6084,-3.6001,-3.6115,-3.6043,-3.6074,-3.6081,-3.6086,-3.6091,-3.5998,-3.6139,-3.6384,-3.6408,-3.6098,-3.6095,-3.6093,0,-3.5718,-3.5816,-3.5916,-3.5936,-3.5965,-3.6013,-3.6028,-3.6054,-3.6089,-3.6133,-3.6155,-3.6209,-3.6238,-3.628,-3.6263,-3.6205,-3.6381,-3.6297,-3.6379,-3.6379,-3.6417,-3.6414,-3.6668,-3.6441,-3.6441,-3.644,-3.644,0,-3.5915,-3.6007,-3.5988,-3.6049,-3.615,-3.6124,-3.6224,-3.6232,-3.6256,-3.6317,-3.6274,-3.6332,-3.6308,-3.6365,-3.6353,-3.6449,-3.6463,-3.6462,-3.6457,-3.6464,-3.6464,-3.6483,-3.647,-3.6447,-3.6445,-3.6444,-3.6443,0,-3.611,-3.6101,-3.6206,-3.6225,-3.6232,-3.6305,-3.6321,-3.6378,-3.6376,-3.6454,-3.6471,-3.6468,-3.6532,-3.6521,-3.6593,-3.6584,-3.6703,-3.6686,-3.6693,-3.6688,-3.677,-3.6761,-3.7042,-3.7077,-3.683,-3.6832,-3.6834,0,-3.6235,-3.6304,-3.633,-3.6368,-3.6386,-3.6448,-3.6483,-3.6461,-3.65,-3.654,-3.6592,-3.6653,-3.67,-3.6806,-3.6809,-3.6864,-3.6846,-3.6941,-3.6853,-3.6858,-3.6844,-3.6839,-3.6845,-3.6957,-3.696,-3.6962,-3.6964,0,-3.6458,-3.645,-3.6503,-3.6554,-3.6598,-3.6637,-3.6672,-3.6706,-3.6686,-3.6732,-3.6797,-3.6834,-3.6907,-3.6967,-3.7018,-3.7032,-3.6995,-3.6992,-3.7013,-3.702,-3.702,-3.7019,-3.6737,-3.6985,-3.6983,-3.6981,-3.698,-3.6979,-3.662,-3.6678,-3.6705,-3.6765,-3.6789,-3.6823,-3.6877,-3.6881,-3.6935,-3.6992,-3.6976,-3.705,-3.7078,-3.7142,-3.7162,-3.7219,-3.7184,-3.7216,-3.7223,-3.7231,-3.724,-3.7013,-3.7229,-3.7228,-3.7228,-3.7227,-3.7227,0,-3.6838,-3.6853,-3.6908,-3.6958,-3.7005,-3.6967,-3.7003,-3.7045,-3.711,-3.714,-3.7187,-3.7262,-3.732,-3.7328,-3.7383,-3.7427,-3.7411,-3.7442,-3.7437,-3.7441,-3.7269,-3.7244,-3.7454,-3.7454,-3.7454,-3.7454,-3.7454,-3.7454,-3.6957,-3.7052,-3.7047,-3.7154,-3.7168,-3.7239,-3.7263,-3.7294,-3.7317,-3.7402,-3.745,-3.7455,-3.7476,-3.7532,-3.7583,-3.7584,-3.7606,-3.7643,-3.7637,-3.7476,-3.7453,-3.7432,-3.7407,-3.7648,-3.7648,-3.7803,-3.7805,-3.7806]},{"header":{"parameterUnit":"m.s-1","parameterCategory":1,"la1":30.2991,"la2":30.254,"lo1":-89.0895,"lo2":-89.0444,"dy":0.0017,"dx":0.0017,"nx":28,"ny":28,"refTime":"2024-04-23T03:00:00:Z","depth":0,"parameterNumber":3,"parameterNumberName":"V-component_of_WINDS"},"data":[0,0,0,0,0,0,0,0,0,0,0,0,0,0,0,0,0,0,0,0,0,0,0,0,0,0,0,0,0,0,0,0,0,0,0,0,0,0,0,0,0,0,0,0,0,0,0,0,0,0,0,0,0,0,0,0,0,0,0.2663,0.2662,0,0.2626,0.2625,0.2625,0.2505,0.2503,0.25,0.2497,0.2464,0.2465,0.2467,0,0,0,0,0,0,0,0,0,0,0,0,0,0.2635,0.2636,0.2663,0.2662,0.2662,0.2626,0.2625,0.2625,0.2506,0.2503,0.2499,0.2496,0.2463,0.2465,0.2467,0,0,0,0,0,0,0,0,0,0,0,0,0,0.2628,0.2637,0.2663,0.2598,0.2592,0.2626,0.2625,0.2625,0.2506,0.2502,0.2498,0.2495,0.2463,0.2465,0.2467,0.2562,0,0,0.2475,0.2476,0,0,0,0,0,0,0,0,0.2628,0.2629,0.2608,0.2603,0.2596,0.2566,0.2603,0.2604,0.2507,0.2539,0.2497,0.2493,0.2501,0.25,0.2502,0.2561,0.2559,0.2475,0.2476,0.2477,0.2478,0,0,0,0,0,0,0,0.2629,0.263,0.2648,0.2608,0.26,0.2572,0.2567,0.2603,0.2543,0.2536,0.2527,0.2524,0.2497,0.25,0.2501,0.2559,0.2475,0.2477,0.2478,0.2479,0.2695,0.2699,0,0,0,0,0,0,0.2638,0.2631,0.2649,0.2647,0.2602,0.2576,0.257,0.258,0.2542,0.2533,0.2528,0.2519,0.2498,0.2498,0.2499,0.2608,0.2477,0.248,0.2481,0.2691,0.2696,0.2701,0,0,0,0,0,0,0.2638,0.2641,0.2651,0.2637,0.2636,0.2581,0.2593,0.2581,0.2584,0.2536,0.2525,0.2541,0.2495,0.2496,0.2547,0.2606,0.2481,0.2483,0.2686,0.2692,0.2698,0.2828,0,0,0,0,0,0,0.2638,0.2642,0.2676,0.2638,0.2637,0.2699,0.2596,0.2583,0.2588,0.2576,0.2546,0.2537,0.2492,0.2545,0.255,0.2607,0.2485,0.268,0.2689,0.2696,0.2819,0.2838,0.2855,0,0,0,0,0,0.2637,0.2714,0.2678,0.2681,0.2678,0.2702,0.2702,0.2646,0.2593,0.2628,0.2597,0.2538,0.2599,0.2551,0.2556,0.2614,0.2676,0.2686,0.2696,0.281,0.2835,0.2855,0,0,0,0,0,0,0.2761,0.2708,0.2667,0.2735,0.2724,0.2682,0.2724,0.2674,0.2679,0.2668,0.26,0.2594,0.2657,0.264,0.2588,0.2705,0.2628,0.2639,0.2713,0.2736,0.2754,0.2757,0.2487,0,0,0,0,0,0.2796,0.2819,0.2772,0.2836,0.2832,0.278,0.2788,0.2746,0.2733,0.2728,0.2701,0.2692,0.2709,0.2721,0.2734,0.2816,0.2809,0.2859,0.2877,0.2892,0.2903,0.2947,0.2969,0.2732,0.2732,0.2732,0,0,0.2869,0.2843,0.2861,0.286,0.2847,0.2873,0.2777,0.2808,0.2828,0.2733,0.278,0.2761,0.2746,0.2814,0.2842,0.2803,0.2967,0.2905,0.2917,0.2919,0.2959,0.2981,0.3001,0.2739,0.2738,0.2737,0,0,0.3015,0.2997,0.3049,0.3038,0.3019,0.2983,0.2996,0.2962,0.2946,0.2992,0.2922,0.2945,0.2975,0.2967,0.2968,0.3114,0.306,0.312,0.3216,0.3259,0.3278,0.3294,0.3347,0.3367,0.313,0.3131,0.3131,0,0.3109,0.3144,0.3082,0.3119,0.3121,0.3036,0.3089,0.3082,0.3069,0.3073,0.3028,0.3065,0.3049,0.3114,0.315,0.3152,0.3166,0.3123,0.328,0.3296,0.331,0.336,0.338,0.3138,0.3137,0.3136,0.3136,0,0.3261,0.3287,0.3331,0.3319,0.3327,0.3372,0.3318,0.3333,0.3292,0.3262,0.3311,0.3289,0.3297,0.3309,0.3269,0.337,0.3346,0.3292,0.3213,0.3341,0.3387,0.3405,0.3149,0.3146,0.3144,0.3142,0,0,0.3483,0.3438,0.3455,0.3449,0.3423,0.3443,0.3485,0.3491,0.3506,0.35,0.3535,0.3563,0.3513,0.3513,0.3472,0.351,0.3628,0.3451,0.345,0.3486,0.374,0.3781,0.3804,0.3593,0.3596,0.3599,0.3742,0,0.3622,0.369,0.3636,0.3714,0.3738,0.3659,0.3696,0.3685,0.3658,0.3677,0.3648,0.3669,0.3601,0.3601,0.3635,0.3607,0.3679,0.3596,0.3626,0.3628,0.3633,0.3828,0.3871,0.4007,0.3759,0.3762,0.3764,0,0.3793,0.3795,0.3875,0.3845,0.3853,0.3887,0.3889,0.3907,0.3893,0.3872,0.3873,0.3822,0.3863,0.3786,0.3842,0.3787,0.3796,0.3785,0.3789,0.379,0.3704,0.3835,0.4049,0.407,0.3792,0.3789,0.3787,0,0.3949,0.3971,0.4022,0.402,0.3985,0.4011,0.3999,0.3981,0.3989,0.3991,0.3996,0.4004,0.4009,0.4017,0.397,0.3918,0.4034,0.3952,0.4018,0.402,0.4046,0.4046,0.4265,0.4052,0.4052,0.4051,0.4051,0,0.411,0.4163,0.4092,0.4123,0.4181,0.412,0.4178,0.4157,0.4143,0.417,0.4103,0.413,0.4066,0.4088,0.4052,0.4105,0.4108,0.4093,0.4083,0.4099,0.4101,0.4105,0.4094,0.4057,0.4056,0.4055,0.4054,0,0.4294,0.4248,0.4298,0.4262,0.4254,0.4298,0.4268,0.4296,0.4266,0.4302,0.4307,0.426,0.4282,0.4236,0.4252,0.4228,0.4304,0.4278,0.4308,0.4301,0.437,0.4365,0.46,0.4628,0.4397,0.4399,0.4401,0,0.44,0.4438,0.4406,0.4419,0.441,0.4432,0.4439,0.4381,0.4392,0.4381,0.4412,0.4428,0.4438,0.4477,0.4446,0.4458,0.4433,0.4515,0.4435,0.4451,0.4436,0.4434,0.4439,0.4532,0.4535,0.4537,0.4539,0,0.4593,0.4569,0.4582,0.4588,0.4598,0.46,0.4597,0.4612,0.4551,0.4568,0.4589,0.4597,0.4613,0.4631,0.4636,0.4624,0.4573,0.4565,0.4581,0.4598,0.4614,0.4607,0.4354,0.4559,0.4557,0.4556,0.4555,0.4554,0.4741,0.4772,0.4755,0.4772,0.4764,0.4763,0.4789,0.4762,0.4778,0.4786,0.4752,0.4781,0.4769,0.477,0.4765,0.4788,0.4752,0.4775,0.4781,0.4788,0.48,0.461,0.4789,0.4788,0.4788,0.4787,0.4787,0,0.4932,0.4917,0.4933,0.4932,0.4946,0.4895,0.4889,0.4905,0.4932,0.4924,0.4935,0.4961,0.4978,0.4948,0.4961,0.4986,0.4963,0.4991,0.4989,0.4988,0.4831,0.4816,0.501,0.501,0.501,0.501,0.501,0.501,0.5033,0.5083,0.5057,0.5104,0.5089,0.5116,0.5118,0.5118,0.5111,0.5143,0.5156,0.5136,0.5121,0.5132,0.5146,0.5137,0.5146,0.5183,0.5166,0.502,0.4999,0.4978,0.4963,0.5185,0.5186,0.5321,0.5322,0.5323]}]]